Погода в Мулловке

Россия / Самарская область     53°46′30″N   50°09′42″E
темп.,
°C
ветер,
м/с
пор.,
м/с
влажн.,
%
обл.,
%
осадки,
мм/ч
давл.,
гПа
погр.,
м
17 мая, пн
пн1701:00+19ююв345149 0.0 101757
04:00+18ююв225493 0.0 101831
07:00+21ю295622 0.0 1018256
10:00+27ююз463918 0.0 1018462
13:00+31ююв452624 0.0 10183199
16:00+31ююв542431 0.0 10172746
19:00+27ююв334011 0.0 101646
22:00+22ююз224133 0.0 101711
18 мая, вт
вт1801:00+20ю11415 0.0 101711
04:00+18св11440 0.0 101711
07:00+22в11430 0.0 101744
10:00+27юв22335 0.0 1017437
13:00+30вюв11210 0.0 10171807
16:00+31ссв22190 0.0 10162656
19:00+27св22335 0.0 101519
22:00+21всв411585 0.0 1016208
19 мая, ср
ср1901:00+19в512655 0.0 1016315
04:00+17в39674 0.0 1017222
07:00+19в511675 0.0 1017378
10:00+23в78500 0.0 1017835
13:00+26вюв79390 0.0 10171529
16:00+27вюв79390 0.0 10161878
19:00+23в611520 0.0 1016458
22:00+20вюв614550 0.0 1017356
20 мая, чт
чт2001:00+18юв615580 0.0 1017454
04:00+15вюв514620 0.0 1017400
07:00+16вюв614630 0.0 1018512
10:00+21юв810490 0.0 10171112
13:00+24юв811400 0.0 10162002
16:00+24юв811380 0.0 10152246
19:00+21юв612460 0.0 1014506
22:00+18вюв61453100 0.0 1013342
21 мая, пт
пт2101:00+15вюв51177100 0.3 1012267
04:00+14ююв2689100 0.8 1012176
07:00+14ююз5993100 1.1 1014542
10:00+19ююз576820 2.1 10151050
13:00+22юз674992 0.3 10162101
16:00+21зюз475472 0.3 10171359
19:00+21юз585672 0.0 1017336
22:00+16юз3106772 0.0 1018174